Flight Track Log - Related Links

Times and Time Zones

All times are in EDT time to prevent confusion due to time zone crossing. See the JBU51 flight status page for this flight to view local times or setup timezone preferences in your user account.

Time Position Orientation Groundspeed Altitude Reporting Facility
EDT Latitude Longitude Course Direction KTS MPH feet Rate Location/Type
Mon 10:57:49 AM 44.4008 -73.1461 196° South 170 196 4,200  Level Boston Center
Mon 10:58:00 AM 44.2272 -73.2307 190° South  Level FlightAware Approximate
Mon 10:58:49 AM 44.3422 -73.1717 197° South 207 238 7,100  Level Boston Center
Mon 10:59:00 AM 44.1507 -73.2685 195° South  Level FlightAware Approximate
Mon 10:59:49 AM 44.2733 -73.1967 195° South 241 277 10,500  Level Boston Center
Mon 11:00:00 AM 44.0712 -73.2983 195° South  Level FlightAware Approximate
Mon 11:00:49 AM 44.1900 -73.2189 191° South 285 328 12,100  Level Boston Center
Mon 11:01:00 AM 43.9912 -73.3252 194° South  Level FlightAware Approximate
Mon 11:01:49 AM 44.0939 -73.2408 189° South 331 381 14,900  Level Boston Center
Mon 11:02:00 AM 43.9113 -73.3522 196° South  Level FlightAware Approximate
Mon 11:02:49 AM 43.9958 -73.2656 190° South 359 413 17,700  Level Boston Center
Mon 11:03:00 AM 43.8322 -73.3839 196° South  Level FlightAware Approximate
Mon 11:03:49 AM 43.8956 -73.2928 191° South 366 421 20,000  Level Boston Center
Mon 11:04:49 AM 43.7892 -73.3172 189° South 380 437 22,400 2,100 Climbing Boston Center
Mon 11:05:49 AM 43.6911 -73.3417 190° South 390 449 24,200 1,800 Climbing Boston Center
Mon 11:06:49 AM 43.5783 -73.3686 190° South 401 461 26,000 1,700 Climbing Boston Center
Mon 11:07:49 AM 43.4656 -73.3956 190° South 411 473 27,600 1,000 Climbing Boston Center
Mon 11:08:49 AM 43.3486 -73.4222 189° South 418 481 28,000 200 Climbing Boston Center
Mon 11:09:49 AM 43.2336 -73.4517 191° South 423 487 28,000  Level Boston Center
Mon 11:10:49 AM 43.1022 -73.4836 190° South 429 494 28,000  Level Boston Center
Mon 11:11:49 AM 42.9872 -73.5131 191° South 429 494 28,000  Level Boston Center
Mon 11:12:49 AM 42.8681 -73.5419 190° South 429 494 28,000  Level Boston Center
Mon 11:13:49 AM 42.7575 -73.5711 191° South 419 482 28,000  Level Boston Center
Mon 11:14:49 AM 42.6425 -73.5972 189° South 419 482 28,000  Level Boston Center
Mon 11:15:49 AM 42.5233 -73.6261 190° South 425 489 28,000  Level Boston Center
Mon 11:16:49 AM 42.4064 -73.6547 190° South 431 496 28,000 -700 Level Boston Center
Mon 11:17:49 AM 42.3019 -73.6725 187° South 426 490 26,600 -1,450 Descending Boston Center
Mon 11:18:49 AM 42.1892 -73.6981 190° South 421 484 25,100 -1,300 Descending Boston Center
Mon 11:19:49 AM 42.0636 -73.7347 192° South 427 491 24,000 -500 Descending Boston Center
Mon 11:21:01 AM 41.9550 -73.7633 191° South 421 484 24,000  Level Boston Center
Mon 11:22:01 AM 41.8292 -73.8275 201° Southwest 409 471 24,000 -33 Level Boston Center
Mon 11:24:04 AM 41.6294 -73.9350 202° Southwest 413 475 23,900 -557 Descending New York Center
Mon 11:25:04 AM 41.5303 -73.9856 201° Southwest 407 468 22,300 -1,850 Descending New York Center
Mon 11:26:04 AM 41.4203 -74.0467 203° Southwest 400 460 20,200 -1,140 Descending New York Center
Mon 11:27:05 AM 41.3247 -74.1111 207° Southwest 393 452 20,000 -99 Descending New York Center
Mon 11:28:05 AM 41.2203 -74.1225 185° South 370 426 20,000 -298 Level New York Center
Mon 11:29:06 AM 41.1139 -74.1256 181° South 382 440 19,400 -667 Descending New York Center
Mon 11:29:35 AM 41.0500 -74.1333 185° South 381 438 19,000 -270 Descending New York TRACON
Mon 11:30:35 AM 40.9667 -74.0833 156° South 359 413 19,000 -524 Level New York TRACON
Mon 11:31:41 AM 40.8833 -73.9833 138° Southeast 330 380 17,900 -1,238 Descending New York TRACON
Mon 11:32:41 AM 40.8167 -73.9000 137° Southeast 323 372 16,400 -1,700 Descending New York TRACON
Mon 11:33:41 AM 40.7667 -73.8167 128° Southeast 312 359 14,500 -1,684 Descending New York TRACON
Mon 11:34:35 AM 40.7000 -73.7667 150° Southeast 299 344 13,200 -1,579 Descending New York TRACON
Mon 11:35:35 AM 40.6333 -73.7167 150° Southeast 415 478 11,500 -1,750 Descending New York TRACON
Mon 11:36:35 AM 40.5500 -73.7500 197° South 288 331 9,700 -1,850 Descending New York TRACON
Mon 11:37:35 AM 40.4833 -73.7833 201° Southwest 256 295 7,800 -2,000 Descending New York TRACON
Mon 11:38:35 AM 40.4333 -73.8333 217° Southwest 258 297 5,700 -2,150 Descending New York TRACON
Mon 11:39:35 AM 40.4333 -73.9333 270° West 267 307 3,500 -1,350 Descending New York TRACON
Mon 11:40:35 AM 40.4667 -74.0000 303° West 263 303 3,000 -250 Descending New York TRACON
Mon 11:41:35 AM 40.5167 -73.9667 27° Northeast 202 232 3,000 -667 Level New York TRACON
Mon 11:42:41 AM 40.5833 -73.9167 30° Northeast 208 239 1,600 -810 Descending New York TRACON
Mon 11:43:41 AM 40.6167 -73.8833 37° Northeast 189 217 1,300 -450 Descending New York TRACON
Mon 11:44:41 AM 40.6667 -73.8500 27° Northeast 151 174 700 -450 Descending New York TRACON
Mon 11:45:41 AM 40.6667 -73.8167 90° East 132 152 400 -300 Descending New York TRACON

Login

Don't have an account? Register now (free) for customized features, flight alerts, and more!